Regional Weather Roundup
Issued by NWS

Home | Current Version | Previous Version | Text Only | Print | Product List | Glossary Off
Versions: 1 2 3 4 5 6 7 8 9 10 11 12 13 14 15 16 17 18 19 20 21 22 23 24 25 26 27 28 29 30 31 32 33 34 35 36 37 38 39 40 41 42 43 44 45 46 47 48 49 50

000
ASUS43 KLOT 011808
RWRIL

ILLINOIS REGIONAL WEATHER ROUNDUP
NATIONAL WEATHER SERVICE CHICAGO/ROMEOVILLE IL
100 PM CDT WED JUL 01 2015

NOTE: "FAIR" INDICATES FEW OR NO CLOUDS BELOW 12,000 FEET WITH NO
SIGNIFICANT WEATHER AND/OR OBSTRUCTIONS TO VISIBILITY.

* THESE STATIONS ARE NOT UNDER NWS QUALITY CONTROL. THEY ALSO MAY NOT
  REPORT WEATHER SUCH AS PRECIPITATION OR FOG.

ILZ001-002-007-009-015-016-024-011900-
NORTHWEST ILLINOIS

CITY           SKY/WX    TMP DP  RH WIND       PRES   REMARKS
MOLINE         PTSUNNY   69  60  73 E10       29.95S
6HR MIN TEMP:  63; 6HR MAX TEMP:  70;

STERLING*      CLOUDY    70  61  73 NE6       29.96S
SAVANNA*       FAIR      72  56  56 NE7       29.96S
$$

ILZ003-004-008-010-011-017-018-011900-
NORTH CENTRAL ILLINOIS

CITY           SKY/WX    TMP DP  RH WIND       PRES   REMARKS
ROCKFORD       CLOUDY    69  55  60 NW5       29.98F
6HR MIN TEMP:  59; 6HR MAX TEMP:  69;

FREEPORT*      PTSUNNY   68  58  68 N5        29.99S
ROCHELLE*      CLOUDY    68  59  73 NE7       29.98S
DE KALB*       PTSUNNY   67  57  71 N8        29.98F
PERU*          CLOUDY    69  60  72 NE6       29.96F
$$

ILZ005-006-012>014-019>023-011900-
NORTHEAST ILLINOIS

CITY           SKY/WX    TMP DP  RH WIND       PRES   REMARKS
CHICAGO-OHARE  CLOUDY    69  54  58 NE8       29.96F
6HR MIN TEMP:  56; 6HR MAX TEMP:  69;

CHICAGO-MIDWAY CLOUDY    66  55  67 E7        29.97S
6HR MIN TEMP:  60; 6HR MAX TEMP:  67;

AURORA         CLOUDY    68  57  68 N5        29.97F
6HR MIN TEMP:  59; 6HR MAX TEMP:  69;

LANSING*       CLOUDY    63  51  64 NE5       29.98S
JOLIET*        CLOUDY    70  60  70 N3        29.96F
WAUKEGAN       SUNNY     61  50  67 NE8       29.98S
6HR MIN TEMP:  55; 6HR MAX TEMP:  63;

DUPAGE AIRPORT CLOUDY    68  57  68 N7        29.96F
6HR MIN TEMP:  57; 6HR MAX TEMP:  69;

KANKAKEE*      CLOUDY    69  60  73 NE5       29.96F
WHEELING       MOSUNNY   63  53  70 NE9       29.99R
6HR MIN TEMP:  56; 6HR MAX TEMP:  67;

MORRIS*        CLOUDY    70  59  67 CALM      29.95F
ROMEOVILLE*    CLOUDY    67  56  67 NE3       29.97S
NORTHERLY ISL    N/A     60  53  77 NE9         N/A
$$

LMZ740>746-011900-
SOUTHERN LAKE MICHIGAN

STATION/POSITION SKY/WX   TEMP    WIND        PRES    VSBY  WAVE
                          AIR SEA DIR/SP/G                  HT/PER
                          (F)     (DEG/KT/KT) (MB)    (MI)  (FT/S)
HARRISON CRIB              56      50/  8/ 10   N/A
BURNHAM HARBOR             60      60/  7/ 10   N/A
CALUMET HARBOR             59      20/  7/ 11   N/A
BURNS HARBOR               58      20/ 11/ 13 1016.3R
MICHIGAN CITY              57     350/ 11/ 14   N/A
MICHIGAN CITY 6N           58 65   20/  8/ 12   N/A           3/ 5
ST. JOSEPH                 58 63                N/A           3/ 6
$$

ILZ025>027-034>036-040-047-049-050-058-095>099-011900-
WEST-CENTRAL ILLINOIS

CITY           SKY/WX    TMP DP  RH WIND       PRES   REMARKS
QUINCY         PTSUNNY   80  67  64 VRB3      29.89F HX  82
GALESBURG*     FAIR      73  65  74 NE9       29.93F
MACOMB*        FAIR      77  69  77 E6        29.93F
JACKSONVILLE*  CLOUDY    81  70  69 SW6       29.90S HX  84
PITTSFIELD*    PTSUNNY   81  67  61 CALM      29.91F HX  83
$$

ILZ028>032-037-038-041>044-048-051>054-059>061-011900-
CENTRAL ILLINOIS

CITY           SKY/WX    TMP DP  RH WIND       PRES   REMARKS
PONTIAC        PTSUNNY   73  64  74 E7        29.95F
BLOOMINGTON    FAIR      74  65  73 E10       29.94F
DECATUR        CLOUDY    78  70  76 NE8       29.91F HAZE    HX  80
PEORIA         FAIR      76  63  64 E9        29.92F
6HR MIN TEMP:  68; 6HR MAX TEMP:  76;

LACON*         FAIR      72  62  71 E7        29.93F
LINCOLN*       FAIR      76  68  76 NE8       29.91F
SPRINGFIELD    FAIR      81  68  64 CALM      29.90F HX  84
6HR MIN TEMP:  71; 6HR MAX TEMP:  82;

TAYLORVILLE    CLOUDY    77  66  69 W9        29.91F
$$

ILZ033-039-045-046-055>057-062-063-011900-
EAST-CENTRAL ILLINOIS

CITY           SKY/WX    TMP DP  RH WIND       PRES   REMARKS
CHAMPAIGN      CLOUDY    73  66  78 E6        29.93F
DANVILLE*      MOSUNNY   71  64  77 E5        29.91F HAZE
RANTOUL*       PTSUNNY   73  64  73 E5        29.94S
MATTOON        LGT RAIN  73  68  84 S5        29.91F
PARIS*         MOSUNNY   75  68  80 E3        29.92F
$$

ILZ079-100>102-011900-
SOUTHWEST ILLINOIS

CITY           SKY/WX    TMP DP  RH WIND       PRES   REMARKS
ALTON          CLOUDY    79  73  83 W6        29.91F HX  82
CAHOKIA*       FAIR      81  68  64 W9        29.90F HX  84
SPARTA*        PTSUNNY   77  67  71 SW9       29.93F
$$

ILZ064>066-069>071-074>076-080>082-084>086-088>090-092>094-011900-
SOUTH-CENTRAL ILLINOIS

CITY           SKY/WX    TMP DP  RH WIND       PRES   REMARKS
CARBONDALE     CLOUDY    75  68  78 SW10      29.93F
6HR MIN TEMP:  71; 6HR MAX TEMP:  75; 6HR PCP:  0.07;

CAIRO*         DRIZZLE   73  68  84 W6        29.93F
EFFINGHAM*     FAIR      81  63  54 W9        29.93S HX  82
MARION         CLOUDY    75  70  83 SW9       29.96F
MT. VERNON     CLOUDY    77  66  69 W5        29.94F
CENTRALIA*     FAIR      78  68  71 W9        29.93F HX  80
SALEM*         CLOUDY    79  69  71 SW7       29.93F HX  82
METROPOLIS*    LGT RAIN  74  73  94 W7        29.96F
$$

ILZ067-068-072-073-078-083-087-091-011900-
SOUTHEAST ILLINOIS

CITY           SKY/WX    TMP DP  RH WIND       PRES   REMARKS
LAWRENCEVILLE  CLOUDY    76  72  87 S7        29.92F FOG
FLORA*         PTSUNNY   79  69  71 SW12      29.92F HX  82
FAIRFIELD*     PTSUNNY   77  70  78 SW7       29.92F
HARRISBURG*    PTSUNNY   75  70  84 W8        29.96F
ROBINSON*      CLOUDY    77  69  76 CALM      29.92F
CARMI*         FAIR      75  66  73 SW10      29.94F
$$

ABBREVIATIONS USED IN REMARKS
   TC - TEMPERATURE IN CELSIUS
  WCI - WIND CHILL INDEX
   HX - HEAT INDEX
  VSB - VISIBILITY
$$



USA.gov is the U.S. government's official web portal to all federal, state and local government web resources and services.